Home   Weather   Paris 02 Bourse   Past weeks
Flag for France

Past Weather in Paris 02 Bourse, Paris, France — Yesterday and Last 2 Weeks

Now
59 °F

Passing clouds.


Feels Like: 59 °F
Forecast: 66 / 57 °F
Wind: 2 mph from South

Location: Villacoublay
Current Time: Sep 29, 2020 at 10:50:23 pm
Latest Report: Sep 29, 2020 at 10:00 pm
Visibility: N/A
Pressure30.07 "Hg
Humidity: 100%
Dew Point: 59 °F
Location of Paris 02 BourseLocation

Past Weather in Paris 02 Bourse — Graph

°F

Paris 02 Bourse Temperature Yesterday

Maximum temperature yesterday: 59 °F (at 6:30 pm)
Minimum temperature yesterday: 52 °F (at 7:00 am)
Average temperature yesterday: 54 °F

High & Low Weather Summary for the Past Weeks

 TemperatureHumidityPressure
High90 °F (Sep 15, 2:00 pm)100% (Sep 26, 11:00 pm)30.24 "Hg (Sep 26, 11:00 pm)
Low46 °F (Sep 26, 2:30 am)26% (Sep 15, 6:30 pm)29.45 "Hg (Sep 25, 5:00 am)
Average63 °F70%29.90 "Hg
* Reported Sep 14 9:00 pm — Sep 29 9:30 pm, Paris 02 Bourse. Weather by CustomWeather, © 2020

Note: Actual official high and low records may vary slightly from our data, if they occured in-between our weather recording intervals... More about our weather records

Paris 02 Bourse Weather History for the Previous 24 Hours

Scroll right to see more
 ConditionsComfort  
Time TempWeatherWind HumidityBarometerVisibility
9:30 pm
Tue, Sep 29
61 °FMostly cloudy.2 mph94%30.07 "HgN/A
9:00 pm61 °FOvercast.2 mph94%30.07 "HgN/A
8:30 pm61 °FOvercast.1 mph94%30.07 "HgN/A
8:00 pm61 °FMostly cloudy.No wind94%30.07 "HgN/A
7:30 pm61 °FOvercast.2 mph94%30.07 "HgN/A
7:00 pm63 °FMostly cloudy.5 mph88%30.07 "HgN/A
6:30 pm63 °FMostly cloudy.3 mph88%30.07 "HgN/A
6:00 pm63 °FMore clouds than sun.5 mph88%30.07 "HgN/A
5:30 pm63 °FCloudy.6 mph88%30.07 "HgN/A
5:00 pm63 °FBroken clouds.6 mph88%30.07 "HgN/A
4:30 pm63 °FPartly sunny.8 mph94%30.07 "Hg5 mi
4:00 pm63 °FBroken clouds.8 mph94%30.07 "HgN/A
3:30 pm61 °FPartly sunny.8 mph94%30.07 "HgN/A
3:00 pm61 °FPartly sunny.9 mph94%30.07 "HgN/A
2:30 pm61 °FLight rain. Fog.6 mph94%30.07 "Hg2 mi
2:00 pm61 °FDrizzle. Fog.5 mph94%30.09 "Hg2 mi
1:30 pm61 °FMostly cloudy.5 mph94%30.09 "HgN/A
1:00 pm61 °FMostly cloudy.6 mph94%30.07 "HgN/A
12:30 pm63 °FMostly cloudy.6 mph83%30.07 "HgN/A
12:00 pm61 °FPartly sunny.6 mph88%30.07 "HgN/A
11:30 am59 °FMostly cloudy.5 mph94%30.07 "HgN/A
11:00 am59 °FMostly cloudy.6 mph94%30.07 "Hg6 mi
10:30 am57 °FMostly cloudy.7 mph100%30.07 "Hg5 mi
10:00 am57 °FMostly cloudy.8 mph94%30.07 "Hg5 mi
9:30 am57 °FPartly sunny.6 mph94%30.07 "Hg5 mi
9:00 am55 °FPartly sunny.7 mph100%30.07 "Hg4 mi
8:30 am55 °FPartly sunny.5 mph100%30.04 "Hg5 mi
8:00 am55 °FPartly sunny.3 mph100%30.04 "HgN/A
7:30 am55 °FPartly cloudy.6 mph100%30.04 "Hg6 mi
7:00 am55 °FMostly cloudy.6 mph100%30.04 "HgN/A
6:30 am55 °FFog.7 mph100%30.04 "Hg3 mi
6:00 am55 °FDrizzle. Low clouds.6 mph100%30.04 "Hg4 mi
5:30 am55 °FDrizzle. Fog.6 mph100%30.04 "Hg2 mi
5:00 am55 °FFog.6 mph94%30.04 "Hg2 mi
4:30 am55 °FMostly cloudy.6 mph94%30.04 "HgN/A
4:00 am54 °FOvercast.7 mph100%30.04 "HgN/A
3:30 am54 °FMostly cloudy.6 mph94%30.04 "HgN/A
3:00 am54 °FPassing clouds.6 mph94%30.04 "HgN/A
2:30 am54 °FClear.6 mph94%30.01 "Hg10 mi
2:00 am54 °FClear.7 mph94%30.01 "Hg10 mi
1:30 am55 °FOvercast.9 mph88%30.01 "HgN/A
1:00 am54 °FMostly cloudy.8 mph94%30.01 "HgN/A
12:30 am55 °FMostly cloudy.8 mph88%30.01 "HgN/A
12:00 am54 °FPassing clouds.7 mph94%30.01 "HgN/A
11:30 pm
Mon, Sep 28
54 °FMostly cloudy.8 mph88%30.01 "HgN/A
11:00 pm54 °FPassing clouds.9 mph88%30.01 "HgN/A
10:30 pm54 °FPassing clouds.8 mph88%30.01 "HgN/A
10:00 pm54 °FPartly cloudy.7 mph82%30.01 "HgN/A
Weather by CustomWeather, © 2020

See weather overview